datetime,poll,units,date,start_hour,site,wd
2019-10-01 00:00:00,1.0,ug/m3 (LC),2019-10-01,0,3781,318.274
2019-10-01 01:00:00,3.0,ug/m3 (LC),2019-10-01,1,3781,309.923
2019-10-01 02:00:00,3.0,ug/m3 (LC),2019-10-01,2,3781,291.327
2019-10-01 03:00:00,1.0,ug/m3 (LC),2019-10-01,3,3781,284.992
2019-10-01 04:00:00,4.0,ug/m3 (LC),2019-10-01,4,3781,298.808
2019-10-01 05:00:00,4.0,ug/m3 (LC),2019-10-01,5,3781,292.653
2019-10-01 06:00:00,3.0,ug/m3 (LC),2019-10-01,6,3781,290.835
2019-10-01 07:00:00,2.0,ug/m3 (LC),2019-10-01,7,3781,307.473
2019-10-01 08:00:00,5.0,ug/m3 (LC),2019-10-01,8,3781,327.077
2019-10-01 09:00:00,4.0,ug/m3 (LC),2019-10-01,9,3781,326.411
2019-10-01 10:00:00,5.0,ug/m3 (LC),2019-10-01,10,3781,307.334
2019-10-01 11:00:00,2.0,ug/m3 (LC),2019-10-01,11,3781,299.023
2019-10-01 12:00:00,2.0,ug/m3 (LC),2019-10-01,12,3781,291.338
2019-10-01 13:00:00,5.0,ug/m3 (LC),2019-10-01,13,3781,285.524
2019-10-01 14:00:00,1.0,ug/m3 (LC),2019-10-01,14,3781,282.373
2019-10-01 15:00:00,0.0,ug/m3 (LC),2019-10-01,15,3781,250.244
2019-10-01 16:00:00,0.0,ug/m3 (LC),2019-10-01,16,3781,319.26
2019-10-01 17:00:00,2.0,ug/m3 (LC),2019-10-01,17,3781,314.547
2019-10-01 18:00:00,1.0,ug/m3 (LC),2019-10-01,18,3781,300.867
2019-10-01 19:00:00,4.0,ug/m3 (LC),2019-10-01,19,3781,314.863
2019-10-01 20:00:00,5.0,ug/m3 (LC),2019-10-01,20,3781,324.96
2019-10-01 21:00:00,5.0,ug/m3 (LC),2019-10-01,21,3781,303.22
2019-10-01 22:00:00,3.0,ug/m3 (LC),2019-10-01,22,3781,261.795
2019-10-01 23:00:00,7.0,ug/m3 (LC),2019-10-01,23,3781,319.375
2019-10-02 00:00:00,8.0,ug/m3 (LC),2019-10-02,0,3781,24.8746
2019-10-02 01:00:00,6.0,ug/m3 (LC),2019-10-02,1,3781,311.174
2019-10-02 02:00:00,5.0,ug/m3 (LC),2019-10-02,2,3781,7.8604
2019-10-02 03:00:00,6.0,ug/m3 (LC),2019-10-02,3,3781,310.719
2019-10-02 04:00:00,7.0,ug/m3 (LC),2019-10-02,4,3781,50.3319
2019-10-02 05:00:00,7.0,ug/m3 (LC),2019-10-02,5,3781,54.0911
2019-10-02 06:00:00,4.0,ug/m3 (LC),2019-10-02,6,3781,335.612
2019-10-02 07:00:00,5.0,ug/m3 (LC),2019-10-02,7,3781,133.512
2019-10-02 08:00:00,6.0,ug/m3 (LC),2019-10-02,8,3781,128.501
2019-10-02 09:00:00,9.0,ug/m3 (LC),2019-10-02,9,3781,134.333
2019-10-02 10:00:00,8.0,ug/m3 (LC),2019-10-02,10,3781,142.798
2019-10-02 11:00:00,11.0,ug/m3 (LC),2019-10-02,11,3781,223.564
2019-10-02 12:00:00,6.0,ug/m3 (LC),2019-10-02,12,3781,333.283
2019-10-02 13:00:00,9.0,ug/m3 (LC),2019-10-02,13,3781,302.808
2019-10-02 14:00:00,6.0,ug/m3 (LC),2019-10-02,14,3781,305.866
2019-10-02 15:00:00,3.0,ug/m3 (LC),2019-10-02,15,3781,309.772
2019-10-02 16:00:00,6.0,ug/m3 (LC),2019-10-02,16,3781,308.606
2019-10-02 17:00:00,2.0,ug/m3 (LC),2019-10-02,17,3781,292.525
2019-10-02 18:00:00,7.0,ug/m3 (LC),2019-10-02,18,3781,285.253
2019-10-02 19:00:00,5.0,ug/m3 (LC),2019-10-02,19,3781,291.189
2019-10-02 20:00:00,6.0,ug/m3 (LC),2019-10-02,20,3781,313.978
2019-10-02 21:00:00,7.0,ug/m3 (LC),2019-10-02,21,3781,303.946
2019-10-02 22:00:00,15.0,ug/m3 (LC),2019-10-02,22,3781,214.989
2019-10-02 23:00:00,9.0,ug/m3 (LC),2019-10-02,23,3781,225.187
2019-10-03 00:00:00,10.0,ug/m3 (LC),2019-10-03,0,3781,32.3259
2019-10-03 01:00:00,10.0,ug/m3 (LC),2019-10-03,1,3781,81.6767
2019-10-03 02:00:00,10.0,ug/m3 (LC),2019-10-03,2,3781,61.626
2019-10-03 03:00:00,11.0,ug/m3 (LC),2019-10-03,3,3781,121.763
2019-10-03 04:00:00,10.0,ug/m3 (LC),2019-10-03,4,3781,61.7015
2019-10-03 05:00:00,9.0,ug/m3 (LC),2019-10-03,5,3781,58.8748
2019-10-03 06:00:00,6.0,ug/m3 (LC),2019-10-03,6,3781,78.6575
2019-10-03 07:00:00,12.0,ug/m3 (LC),2019-10-03,7,3781,122.606
2019-10-03 08:00:00,17.0,ug/m3 (LC),2019-10-03,8,3781,126.127
2019-10-03 09:00:00,15.0,ug/m3 (LC),2019-10-03,9,3781,154.933
2019-10-03 10:00:00,19.0,ug/m3 (LC),2019-10-03,10,3781,214.496
2019-10-03 11:00:00,6.0,ug/m3 (LC),2019-10-03,11,3781,232.523
2019-10-03 12:00:00,9.0,ug/m3 (LC),2019-10-03,12,3781,299.536
2019-10-03 13:00:00,6.0,ug/m3 (LC),2019-10-03,13,3781,296.226
2019-10-03 14:00:00,3.0,ug/m3 (LC),2019-10-03,14,3781,279.905
2019-10-03 15:00:00,5.0,ug/m3 (LC),2019-10-03,15,3781,308.811
2019-10-03 16:00:00,5.0,ug/m3 (LC),2019-10-03,16,3781,320.253
2019-10-03 17:00:00,3.0,ug/m3 (LC),2019-10-03,17,3781,306.14
2019-10-03 18:00:00,2.0,ug/m3 (LC),2019-10-03,18,3781,310.005
2019-10-03 19:00:00,7.0,ug/m3 (LC),2019-10-03,19,3781,306.711
2019-10-03 20:00:00,6.0,ug/m3 (LC),2019-10-03,20,3781,307.046
2019-10-03 21:00:00,3.0,ug/m3 (LC),2019-10-03,21,3781,306.192
2019-10-03 22:00:00,-3.0,ug/m3 (LC),2019-10-03,22,3781,312.283
2019-10-03 23:00:00,0.0,ug/m3 (LC),2019-10-03,23,3781,318.137
2019-10-04 00:00:00,0.0,ug/m3 (LC),2019-10-04,0,3781,323.127
2019-10-04 01:00:00,3.0,ug/m3 (LC),2019-10-04,1,3781,321.431
2019-10-04 02:00:00,3.0,ug/m3 (LC),2019-10-04,2,3781,323.777
2019-10-04 03:00:00,-1.0,ug/m3 (LC),2019-10-04,3,3781,309.465
2019-10-04 04:00:00,-1.0,ug/m3 (LC),2019-10-04,4,3781,305.896
2019-10-04 05:00:00,1.0,ug/m3 (LC),2019-10-04,5,3781,320.606
2019-10-04 06:00:00,-2.0,ug/m3 (LC),2019-10-04,6,3781,319.016
2019-10-04 07:00:00,4.0,ug/m3 (LC),2019-10-04,7,3781,321.179
2019-10-04 08:00:00,5.0,ug/m3 (LC),2019-10-04,8,3781,312.826
2019-10-04 09:00:00,5.0,ug/m3 (LC),2019-10-04,9,3781,294.677
2019-10-04 10:00:00,4.0,ug/m3 (LC),2019-10-04,10,3781,294.074
2019-10-04 11:00:00,8.0,ug/m3 (LC),2019-10-04,11,3781,269.673
2019-10-04 12:00:00,6.0,ug/m3 (LC),2019-10-04,12,3781,292.876
2019-10-04 13:00:00,9.0,ug/m3 (LC),2019-10-04,13,3781,306.053
2019-10-04 14:00:00,8.0,ug/m3 (LC),2019-10-04,14,3781,303.354
2019-10-04 15:00:00,5.0,ug/m3 (LC),2019-10-04,15,3781,329.087
2019-10-04 16:00:00,3.0,ug/m3 (LC),2019-10-04,16,3781,313.453
2019-10-04 17:00:00,3.0,ug/m3 (LC),2019-10-04,17,3781,300.195
2019-10-04 18:00:00,4.0,ug/m3 (LC),2019-10-04,18,3781,293.829
2019-10-04 19:00:00,6.0,ug/m3 (LC),2019-10-04,19,3781,275.902
2019-10-04 20:00:00,5.0,ug/m3 (LC),2019-10-04,20,3781,268.539
2019-10-04 21:00:00,3.0,ug/m3 (LC),2019-10-04,21,3781,284.487
2019-10-04 22:00:00,3.0,ug/m3 (LC),2019-10-04,22,3781,295.738
2019-10-04 23:00:00,5.0,ug/m3 (LC),2019-10-04,23,3781,293.692
2019-10-05 00:00:00,6.0,ug/m3 (LC),2019-10-05,0,3781,317.498
2019-10-05 01:00:00,5.0,ug/m3 (LC),2019-10-05,1,3781,207.492
2019-10-05 02:00:00,4.0,ug/m3 (LC),2019-10-05,2,3781,333.007
2019-10-05 03:00:00,4.0,ug/m3 (LC),2019-10-05,3,3781,79.8554
2019-10-05 04:00:00,5.0,ug/m3 (LC),2019-10-05,4,3781,82.5955
2019-10-05 05:00:00,8.0,ug/m3 (LC),2019-10-05,5,3781,103.736
2019-10-05 06:00:00,9.0,ug/m3 (LC),2019-10-05,6,3781,73.2983
2019-10-05 07:00:00,16.0,ug/m3 (LC),2019-10-05,7,3781,125.376
2019-10-05 08:00:00,15.0,ug/m3 (LC),2019-10-05,8,3781,145.942
2019-10-05 09:00:00,11.0,ug/m3 (LC),2019-10-05,9,3781,158.718
2019-10-05 10:00:00,16.0,ug/m3 (LC),2019-10-05,10,3781,216.424
2019-10-05 11:00:00,11.0,ug/m3 (LC),2019-10-05,11,3781,187.741
2019-10-05 12:00:00,8.0,ug/m3 (LC),2019-10-05,12,3781,222.179
2019-10-05 13:00:00,7.0,ug/m3 (LC),2019-10-05,13,3781,207.213
2019-10-05 14:00:00,4.0,ug/m3 (LC),2019-10-05,14,3781,275.541
2019-10-05 15:00:00,4.0,ug/m3 (LC),2019-10-05,15,3781,301.624
2019-10-05 16:00:00,6.0,ug/m3 (LC),2019-10-05,16,3781,316.633
2019-10-05 17:00:00,9.0,ug/m3 (LC),2019-10-05,17,3781,302.622
2019-10-05 18:00:00,4.0,ug/m3 (LC),2019-10-05,18,3781,281.859
2019-10-05 19:00:00,9.0,ug/m3 (LC),2019-10-05,19,3781,287.964
2019-10-05 20:00:00,12.0,ug/m3 (LC),2019-10-05,20,3781,347.014
2019-10-05 21:00:00,16.0,ug/m3 (LC),2019-10-05,21,3781,79.316
2019-10-05 22:00:00,25.0,ug/m3 (LC),2019-10-05,22,3781,147.798
2019-10-05 23:00:00,19.0,ug/m3 (LC),2019-10-05,23,3781,74.0808
2019-10-06 00:00:00,16.0,ug/m3 (LC),2019-10-06,0,3781,70.5972
2019-10-06 01:00:00,13.0,ug/m3 (LC),2019-10-06,1,3781,135.749
2019-10-06 02:00:00,13.0,ug/m3 (LC),2019-10-06,2,3781,73.3112
2019-10-06 03:00:00,20.0,ug/m3 (LC),2019-10-06,3,3781,78.3084
2019-10-06 04:00:00,14.0,ug/m3 (LC),2019-10-06,4,3781,95.3901
2019-10-06 05:00:00,11.0,ug/m3 (LC),2019-10-06,5,3781,107.617
2019-10-06 06:00:00,6.0,ug/m3 (LC),2019-10-06,6,3781,42.9179
2019-10-06 07:00:00,13.0,ug/m3 (LC),2019-10-06,7,3781,108.088
2019-10-06 08:00:00,9.0,ug/m3 (LC),2019-10-06,8,3781,133.363
2019-10-06 09:00:00,13.0,ug/m3 (LC),2019-10-06,9,3781,172.417
2019-10-06 10:00:00,10.0,ug/m3 (LC),2019-10-06,10,3781,240.038
2019-10-06 11:00:00,6.0,ug/m3 (LC),2019-10-06,11,3781,273.734
2019-10-06 12:00:00,9.0,ug/m3 (LC),2019-10-06,12,3781,264.092
2019-10-06 13:00:00,9.0,ug/m3 (LC),2019-10-06,13,3781,241.196
2019-10-06 14:00:00,7.0,ug/m3 (LC),2019-10-06,14,3781,24.2647
2019-10-06 15:00:00,8.0,ug/m3 (LC),2019-10-06,15,3781,240.2
2019-10-06 16:00:00,7.0,ug/m3 (LC),2019-10-06,16,3781,282.696
2019-10-06 17:00:00,5.0,ug/m3 (LC),2019-10-06,17,3781,263.838
2019-10-06 18:00:00,5.0,ug/m3 (LC),2019-10-06,18,3781,278.224
2019-10-06 19:00:00,8.0,ug/m3 (LC),2019-10-06,19,3781,299.552
2019-10-06 20:00:00,6.0,ug/m3 (LC),2019-10-06,20,3781,319.627
2019-10-06 21:00:00,6.0,ug/m3 (LC),2019-10-06,21,3781,321.186
2019-10-06 22:00:00,10.0,ug/m3 (LC),2019-10-06,22,3781,327.971
2019-10-06 23:00:00,8.0,ug/m3 (LC),2019-10-06,23,3781,210.764
2019-10-07 00:00:00,6.0,ug/m3 (LC),2019-10-07,0,3781,236.36
2019-10-07 01:00:00,8.0,ug/m3 (LC),2019-10-07,1,3781,65.5733
2019-10-07 02:00:00,9.0,ug/m3 (LC),2019-10-07,2,3781,89.7224
2019-10-07 03:00:00,11.0,ug/m3 (LC),2019-10-07,3,3781,136.743
2019-10-07 04:00:00,11.0,ug/m3 (LC),2019-10-07,4,3781,114.243
2019-10-07 05:00:00,14.0,ug/m3 (LC),2019-10-07,5,3781,92.6319
2019-10-07 06:00:00,12.0,ug/m3 (LC),2019-10-07,6,3781,83.8935
2019-10-07 07:00:00,12.0,ug/m3 (LC),2019-10-07,7,3781,84.3537
2019-10-07 08:00:00,16.0,ug/m3 (LC),2019-10-07,8,3781,123.802
2019-10-07 09:00:00,15.0,ug/m3 (LC),2019-10-07,9,3781,151.926
2019-10-07 10:00:00,18.0,ug/m3 (LC),2019-10-07,10,3781,160.838
2019-10-07 11:00:00,13.0,ug/m3 (LC),2019-10-07,11,3781,251.398
2019-10-07 12:00:00,9.0,ug/m3 (LC),2019-10-07,12,3781,273.803
2019-10-07 13:00:00,13.0,ug/m3 (LC),2019-10-07,13,3781,289.354
2019-10-07 14:00:00,6.0,ug/m3 (LC),2019-10-07,14,3781,307.56
2019-10-07 15:00:00,5.0,ug/m3 (LC),2019-10-07,15,3781,303.247
2019-10-07 16:00:00,5.0,ug/m3 (LC),2019-10-07,16,3781,303.823
2019-10-07 17:00:00,8.0,ug/m3 (LC),2019-10-07,17,3781,310.934
2019-10-07 18:00:00,10.0,ug/m3 (LC),2019-10-07,18,3781,283.744
2019-10-07 19:00:00,11.0,ug/m3 (LC),2019-10-07,19,3781,287.567
2019-10-07 20:00:00,15.0,ug/m3 (LC),2019-10-07,20,3781,329.078
2019-10-07 21:00:00,13.0,ug/m3 (LC),2019-10-07,21,3781,307.445
2019-10-07 22:00:00,14.0,ug/m3 (LC),2019-10-07,22,3781,318.278
2019-10-07 23:00:00,12.0,ug/m3 (LC),2019-10-07,23,3781,291.363
2019-10-08 00:00:00,10.0,ug/m3 (LC),2019-10-08,0,3781,73.5335
2019-10-08 01:00:00,16.0,ug/m3 (LC),2019-10-08,1,3781,111.085
2019-10-08 02:00:00,15.0,ug/m3 (LC),2019-10-08,2,3781,72.6646
2019-10-08 03:00:00,10.0,ug/m3 (LC),2019-10-08,3,3781,65.8459
2019-10-08 04:00:00,18.0,ug/m3 (LC),2019-10-08,4,3781,114.341
2019-10-08 05:00:00,17.0,ug/m3 (LC),2019-10-08,5,3781,140.296
2019-10-08 06:00:00,15.0,ug/m3 (LC),2019-10-08,6,3781,117.951
2019-10-08 07:00:00,17.0,ug/m3 (LC),2019-10-08,7,3781,115.23
2019-10-08 08:00:00,17.0,ug/m3 (LC),2019-10-08,8,3781,179.839
2019-10-08 09:00:00,19.0,ug/m3 (LC),2019-10-08,9,3781,131.48
2019-10-08 10:00:00,15.0,ug/m3 (LC),2019-10-08,10,3781,147.222
2019-10-08 11:00:00,11.0,ug/m3 (LC),2019-10-08,11,3781,184.941
2019-10-08 12:00:00,8.0,ug/m3 (LC),2019-10-08,12,3781,215.8
2019-10-08 13:00:00,11.0,ug/m3 (LC),2019-10-08,13,3781,217.098
2019-10-08 14:00:00,7.0,ug/m3 (LC),2019-10-08,14,3781,299.337
2019-10-08 15:00:00,11.0,ug/m3 (LC),2019-10-08,15,3781,317.447
2019-10-08 16:00:00,12.0,ug/m3 (LC),2019-10-08,16,3781,320.705
2019-10-08 17:00:00,8.0,ug/m3 (LC),2019-10-08,17,3781,285.793
2019-10-08 18:00:00,16.0,ug/m3 (LC),2019-10-08,18,3781,245.356
2019-10-08 19:00:00,17.0,ug/m3 (LC),2019-10-08,19,3781,265.577
2019-10-08 20:00:00,17.0,ug/m3 (LC),2019-10-08,20,3781,50.7518
2019-10-08 21:00:00,16.0,ug/m3 (LC),2019-10-08,21,3781,89.0101
2019-10-08 22:00:00,21.0,ug/m3 (LC),2019-10-08,22,3781,244.951
2019-10-08 23:00:00,17.0,ug/m3 (LC),2019-10-08,23,3781,58.3107
2019-10-09 00:00:00,14.0,ug/m3 (LC),2019-10-09,0,3781,3.15439
2019-10-09 01:00:00,13.0,ug/m3 (LC),2019-10-09,1,3781,30.8086
2019-10-09 02:00:00,12.0,ug/m3 (LC),2019-10-09,2,3781,66.6898
2019-10-09 03:00:00,15.0,ug/m3 (LC),2019-10-09,3,3781,325.322
2019-10-09 04:00:00,14.0,ug/m3 (LC),2019-10-09,4,3781,91.6885
2019-10-09 05:00:00,16.0,ug/m3 (LC),2019-10-09,5,3781,296.005
2019-10-09 06:00:00,7.0,ug/m3 (LC),2019-10-09,6,3781,334.74
2019-10-09 07:00:00,18.0,ug/m3 (LC),2019-10-09,7,3781,321.646
2019-10-09 08:00:00,9.0,ug/m3 (LC),2019-10-09,8,3781,316.836
2019-10-09 09:00:00,7.0,ug/m3 (LC),2019-10-09,9,3781,304.169
2019-10-09 10:00:00,10.0,ug/m3 (LC),2019-10-09,10,3781,307.721
2019-10-09 11:00:00,9.0,ug/m3 (LC),2019-10-09,11,3781,304.379
2019-10-09 12:00:00,11.0,ug/m3 (LC),2019-10-09,12,3781,308.976
2019-10-09 13:00:00,10.0,ug/m3 (LC),2019-10-09,13,3781,308.174
2019-10-09 14:00:00,11.0,ug/m3 (LC),2019-10-09,14,3781,309.541
2019-10-09 15:00:00,5.0,ug/m3 (LC),2019-10-09,15,3781,306.001
2019-10-09 16:00:00,5.0,ug/m3 (LC),2019-10-09,16,3781,308.692
2019-10-09 17:00:00,6.0,ug/m3 (LC),2019-10-09,17,3781,309.157
2019-10-09 18:00:00,6.0,ug/m3 (LC),2019-10-09,18,3781,301.0
2019-10-09 19:00:00,5.0,ug/m3 (LC),2019-10-09,19,3781,287.667
2019-10-09 20:00:00,8.0,ug/m3 (LC),2019-10-09,20,3781,282.279
2019-10-09 21:00:00,0.0,ug/m3 (LC),2019-10-09,21,3781,288.798
2019-10-09 22:00:00,2.0,ug/m3 (LC),2019-10-09,22,3781,288.239
2019-10-09 23:00:00,2.0,ug/m3 (LC),2019-10-09,23,3781,289.571
2019-10-10 00:00:00,3.0,ug/m3 (LC),2019-10-10,0,3781,291.559
2019-10-10 01:00:00,1.0,ug/m3 (LC),2019-10-10,1,3781,287.398
2019-10-10 02:00:00,-1.0,ug/m3 (LC),2019-10-10,2,3781,186.644
2019-10-10 03:00:00,3.0,ug/m3 (LC),2019-10-10,3,3781,110.554
2019-10-10 04:00:00,1.0,ug/m3 (LC),2019-10-10,4,3781,143.305
2019-10-10 05:00:00,5.0,ug/m3 (LC),2019-10-10,5,3781,59.04
2019-10-10 06:00:00,4.0,ug/m3 (LC),2019-10-10,6,3781,92.268
2019-10-10 07:00:00,8.0,ug/m3 (LC),2019-10-10,7,3781,105.295
2019-10-10 08:00:00,11.0,ug/m3 (LC),2019-10-10,8,3781,158.252
2019-10-10 09:00:00,4.0,ug/m3 (LC),2019-10-10,9,3781,210.578
2019-10-10 10:00:00,9.0,ug/m3 (LC),2019-10-10,10,3781,184.453
2019-10-10 11:00:00,10.0,ug/m3 (LC),2019-10-10,11,3781,185.145
2019-10-10 12:00:00,5.0,ug/m3 (LC),2019-10-10,12,3781,137.888
2019-10-10 13:00:00,8.0,ug/m3 (LC),2019-10-10,13,3781,144.004
2019-10-10 14:00:00,6.0,ug/m3 (LC),2019-10-10,14,3781,236.784
2019-10-10 15:00:00,4.0,ug/m3 (LC),2019-10-10,15,3781,225.574
2019-10-10 16:00:00,7.0,ug/m3 (LC),2019-10-10,16,3781,205.569
2019-10-10 17:00:00,7.0,ug/m3 (LC),2019-10-10,17,3781,227.49
2019-10-10 18:00:00,7.0,ug/m3 (LC),2019-10-10,18,3781,284.184
2019-10-10 19:00:00,10.0,ug/m3 (LC),2019-10-10,19,3781,292.02
2019-10-10 20:00:00,35.0,ug/m3 (LC),2019-10-10,20,3781,322.181
2019-10-10 21:00:00,19.0,ug/m3 (LC),2019-10-10,21,3781,53.5002
2019-10-10 22:00:00,16.0,ug/m3 (LC),2019-10-10,22,3781,70.4186
2019-10-10 23:00:00,17.0,ug/m3 (LC),2019-10-10,23,3781,96.2519
2019-10-11 00:00:00,11.0,ug/m3 (LC),2019-10-11,0,3781,76.3072
2019-10-11 01:00:00,13.0,ug/m3 (LC),2019-10-11,1,3781,45.8381
2019-10-11 02:00:00,13.0,ug/m3 (LC),2019-10-11,2,3781,21.0734
2019-10-11 03:00:00,9.0,ug/m3 (LC),2019-10-11,3,3781,104.605
2019-10-11 04:00:00,10.0,ug/m3 (LC),2019-10-11,4,3781,52.8146
2019-10-11 05:00:00,11.0,ug/m3 (LC),2019-10-11,5,3781,23.6658
2019-10-11 06:00:00,9.0,ug/m3 (LC),2019-10-11,6,3781,152.745
2019-10-11 07:00:00,9.0,ug/m3 (LC),2019-10-11,7,3781,119.65
2019-10-11 08:00:00,13.0,ug/m3 (LC),2019-10-11,8,3781,114.373
2019-10-11 09:00:00,17.0,ug/m3 (LC),2019-10-11,9,3781,170.221
2019-10-11 10:00:00,14.0,ug/m3 (LC),2019-10-11,10,3781,196.909
2019-10-11 11:00:00,9.0,ug/m3 (LC),2019-10-11,11,3781,232.536
2019-10-11 12:00:00,7.0,ug/m3 (LC),2019-10-11,12,3781,221.954
2019-10-11 13:00:00,9.0,ug/m3 (LC),2019-10-11,13,3781,262.706
2019-10-11 14:00:00,7.0,ug/m3 (LC),2019-10-11,14,3781,215.411
2019-10-11 15:00:00,8.0,ug/m3 (LC),2019-10-11,15,3781,218.78
2019-10-11 16:00:00,8.0,ug/m3 (LC),2019-10-11,16,3781,198.313
2019-10-11 17:00:00,17.0,ug/m3 (LC),2019-10-11,17,3781,211.883
2019-10-11 18:00:00,31.0,ug/m3 (LC),2019-10-11,18,3781,352.759
2019-10-11 19:00:00,30.0,ug/m3 (LC),2019-10-11,19,3781,17.0705
2019-10-11 20:00:00,31.0,ug/m3 (LC),2019-10-11,20,3781,4.95891
2019-10-11 21:00:00,24.0,ug/m3 (LC),2019-10-11,21,3781,0.5708
2019-10-11 22:00:00,23.0,ug/m3 (LC),2019-10-11,22,3781,5.20491
2019-10-11 23:00:00,17.0,ug/m3 (LC),2019-10-11,23,3781,105.861
2019-10-12 00:00:00,18.0,ug/m3 (LC),2019-10-12,0,3781,204.849
2019-10-12 01:00:00,15.0,ug/m3 (LC),2019-10-12,1,3781,258.22
2019-10-12 02:00:00,15.0,ug/m3 (LC),2019-10-12,2,3781,68.2637
2019-10-12 03:00:00,19.0,ug/m3 (LC),2019-10-12,3,3781,48.9369
2019-10-12 04:00:00,17.0,ug/m3 (LC),2019-10-12,4,3781,53.3071
2019-10-12 05:00:00,15.0,ug/m3 (LC),2019-10-12,5,3781,59.5878
2019-10-12 06:00:00,11.0,ug/m3 (LC),2019-10-12,6,3781,29.7079
2019-10-12 07:00:00,16.0,ug/m3 (LC),2019-10-12,7,3781,105.921
2019-10-12 08:00:00,16.0,ug/m3 (LC),2019-10-12,8,3781,150.65
2019-10-12 09:00:00,19.0,ug/m3 (LC),2019-10-12,9,3781,146.66
2019-10-12 10:00:00,13.0,ug/m3 (LC),2019-10-12,10,3781,182.869
2019-10-12 11:00:00,14.0,ug/m3 (LC),2019-10-12,11,3781,207.883
2019-10-12 12:00:00,10.0,ug/m3 (LC),2019-10-12,12,3781,235.458
2019-10-12 13:00:00,11.0,ug/m3 (LC),2019-10-12,13,3781,254.699
2019-10-12 14:00:00,10.0,ug/m3 (LC),2019-10-12,14,3781,262.356
2019-10-12 15:00:00,8.0,ug/m3 (LC),2019-10-12,15,3781,288.042
2019-10-12 16:00:00,11.0,ug/m3 (LC),2019-10-12,16,3781,341.709
2019-10-12 17:00:00,10.0,ug/m3 (LC),2019-10-12,17,3781,337.483
2019-10-12 18:00:00,18.0,ug/m3 (LC),2019-10-12,18,3781,312.288
2019-10-12 19:00:00,31.0,ug/m3 (LC),2019-10-12,19,3781,42.1505
2019-10-12 20:00:00,32.0,ug/m3 (LC),2019-10-12,20,3781,11.6589
2019-10-12 21:00:00,35.0,ug/m3 (LC),2019-10-12,21,3781,55.2264
2019-10-12 22:00:00,32.0,ug/m3 (LC),2019-10-12,22,3781,87.5995
2019-10-12 23:00:00,44.0,ug/m3 (LC),2019-10-12,23,3781,67.6984
2019-10-13 00:00:00,35.0,ug/m3 (LC),2019-10-13,0,3781,110.381
2019-10-13 01:00:00,29.0,ug/m3 (LC),2019-10-13,1,3781,76.335
2019-10-13 02:00:00,14.0,ug/m3 (LC),2019-10-13,2,3781,25.2141
2019-10-13 03:00:00,14.0,ug/m3 (LC),2019-10-13,3,3781,49.841
2019-10-13 04:00:00,13.0,ug/m3 (LC),2019-10-13,4,3781,72.983
2019-10-13 05:00:00,9.0,ug/m3 (LC),2019-10-13,5,3781,95.1045
2019-10-13 06:00:00,14.0,ug/m3 (LC),2019-10-13,6,3781,108.135
2019-10-13 07:00:00,16.0,ug/m3 (LC),2019-10-13,7,3781,135.091
2019-10-13 08:00:00,13.0,ug/m3 (LC),2019-10-13,8,3781,127.711
2019-10-13 09:00:00,12.0,ug/m3 (LC),2019-10-13,9,3781,136.788
2019-10-13 10:00:00,13.0,ug/m3 (LC),2019-10-13,10,3781,145.171
2019-10-13 11:00:00,10.0,ug/m3 (LC),2019-10-13,11,3781,145.301
2019-10-13 12:00:00,9.0,ug/m3 (LC),2019-10-13,12,3781,197.193
2019-10-13 13:00:00,11.0,ug/m3 (LC),2019-10-13,13,3781,231.033
2019-10-13 14:00:00,7.0,ug/m3 (LC),2019-10-13,14,3781,300.225
2019-10-13 15:00:00,3.0,ug/m3 (LC),2019-10-13,15,3781,323.325
2019-10-13 16:00:00,10.0,ug/m3 (LC),2019-10-13,16,3781,334.211
2019-10-13 17:00:00,5.0,ug/m3 (LC),2019-10-13,17,3781,311.035
2019-10-13 18:00:00,7.0,ug/m3 (LC),2019-10-13,18,3781,310.416
2019-10-13 19:00:00,4.0,ug/m3 (LC),2019-10-13,19,3781,313.545
2019-10-13 20:00:00,10.0,ug/m3 (LC),2019-10-13,20,3781,309.149
2019-10-13 21:00:00,7.0,ug/m3 (LC),2019-10-13,21,3781,302.629
2019-10-13 22:00:00,11.0,ug/m3 (LC),2019-10-13,22,3781,319.179
2019-10-13 23:00:00,11.0,ug/m3 (LC),2019-10-13,23,3781,306.458
2019-10-14 00:00:00,10.0,ug/m3 (LC),2019-10-14,0,3781,294.088
2019-10-14 01:00:00,10.0,ug/m3 (LC),2019-10-14,1,3781,321.913
2019-10-14 02:00:00,13.0,ug/m3 (LC),2019-10-14,2,3781,343.649
2019-10-14 03:00:00,13.0,ug/m3 (LC),2019-10-14,3,3781,316.741
2019-10-14 04:00:00,12.0,ug/m3 (LC),2019-10-14,4,3781,242.597
2019-10-14 05:00:00,11.0,ug/m3 (LC),2019-10-14,5,3781,107.514
2019-10-14 06:00:00,15.0,ug/m3 (LC),2019-10-14,6,3781,72.4745
2019-10-14 07:00:00,11.0,ug/m3 (LC),2019-10-14,7,3781,138.519
2019-10-14 08:00:00,14.0,ug/m3 (LC),2019-10-14,8,3781,145.195
2019-10-14 09:00:00,19.0,ug/m3 (LC),2019-10-14,9,3781,132.034
2019-10-14 10:00:00,14.0,ug/m3 (LC),2019-10-14,10,3781,130.174
2019-10-14 11:00:00,13.0,ug/m3 (LC),2019-10-14,11,3781,156.638
2019-10-14 12:00:00,12.0,ug/m3 (LC),2019-10-14,12,3781,208.05
2019-10-14 13:00:00,11.0,ug/m3 (LC),2019-10-14,13,3781,268.948
2019-10-14 14:00:00,8.0,ug/m3 (LC),2019-10-14,14,3781,309.556
2019-10-14 15:00:00,7.0,ug/m3 (LC),2019-10-14,15,3781,311.49
2019-10-14 16:00:00,9.0,ug/m3 (LC),2019-10-14,16,3781,306.555
2019-10-14 17:00:00,11.0,ug/m3 (LC),2019-10-14,17,3781,312.941
2019-10-14 18:00:00,11.0,ug/m3 (LC),2019-10-14,18,3781,278.17
2019-10-14 19:00:00,18.0,ug/m3 (LC),2019-10-14,19,3781,1.33444
2019-10-14 20:00:00,35.0,ug/m3 (LC),2019-10-14,20,3781,114.874
2019-10-14 21:00:00,54.0,ug/m3 (LC),2019-10-14,21,3781,202.043
2019-10-14 22:00:00,40.0,ug/m3 (LC),2019-10-14,22,3781,24.5686
2019-10-14 23:00:00,27.0,ug/m3 (LC),2019-10-14,23,3781,92.8716
2019-10-15 00:00:00,16.0,ug/m3 (LC),2019-10-15,0,3781,111.76
2019-10-15 01:00:00,14.0,ug/m3 (LC),2019-10-15,1,3781,73.8078
2019-10-15 02:00:00,12.0,ug/m3 (LC),2019-10-15,2,3781,74.5995
2019-10-15 03:00:00,11.0,ug/m3 (LC),2019-10-15,3,3781,91.5791
2019-10-15 04:00:00,15.0,ug/m3 (LC),2019-10-15,4,3781,81.1539
2019-10-15 05:00:00,18.0,ug/m3 (LC),2019-10-15,5,3781,81.3124
2019-10-15 06:00:00,13.0,ug/m3 (LC),2019-10-15,6,3781,120.064
2019-10-15 07:00:00,17.0,ug/m3 (LC),2019-10-15,7,3781,139.18
2019-10-15 08:00:00,22.0,ug/m3 (LC),2019-10-15,8,3781,128.141
2019-10-15 09:00:00,18.0,ug/m3 (LC),2019-10-15,9,3781,137.971
2019-10-15 10:00:00,21.0,ug/m3 (LC),2019-10-15,10,3781,169.794
2019-10-15 11:00:00,17.0,ug/m3 (LC),2019-10-15,11,3781,228.056
2019-10-15 12:00:00,22.0,ug/m3 (LC),2019-10-15,12,3781,295.786
2019-10-15 13:00:00,15.0,ug/m3 (LC),2019-10-15,13,3781,313.353
2019-10-15 14:00:00,11.0,ug/m3 (LC),2019-10-15,14,3781,300.417
2019-10-15 15:00:00,11.0,ug/m3 (LC),2019-10-15,15,3781,335.91
2019-10-15 16:00:00,14.0,ug/m3 (LC),2019-10-15,16,3781,296.391
2019-10-15 17:00:00,16.0,ug/m3 (LC),2019-10-15,17,3781,289.568
2019-10-15 18:00:00,12.0,ug/m3 (LC),2019-10-15,18,3781,299.211
2019-10-15 19:00:00,14.0,ug/m3 (LC),2019-10-15,19,3781,33.1421
2019-10-15 20:00:00,17.0,ug/m3 (LC),2019-10-15,20,3781,282.472
2019-10-15 21:00:00,15.0,ug/m3 (LC),2019-10-15,21,3781,291.803
2019-10-15 22:00:00,23.0,ug/m3 (LC),2019-10-15,22,3781,73.5289
2019-10-15 23:00:00,20.0,ug/m3 (LC),2019-10-15,23,3781,95.8673
2019-10-16 00:00:00,25.0,ug/m3 (LC),2019-10-16,0,3781,96.2
2019-10-16 01:00:00,35.0,ug/m3 (LC),2019-10-16,1,3781,144.596
2019-10-16 02:00:00,32.0,ug/m3 (LC),2019-10-16,2,3781,67.5687
2019-10-16 03:00:00,32.0,ug/m3 (LC),2019-10-16,3,3781,90.854
2019-10-16 04:00:00,24.0,ug/m3 (LC),2019-10-16,4,3781,126.958
2019-10-16 05:00:00,27.0,ug/m3 (LC),2019-10-16,5,3781,37.4671
2019-10-16 06:00:00,23.0,ug/m3 (LC),2019-10-16,6,3781,68.8217
2019-10-16 07:00:00,23.0,ug/m3 (LC),2019-10-16,7,3781,83.3649
2019-10-16 08:00:00,21.0,ug/m3 (LC),2019-10-16,8,3781,114.546
2019-10-16 09:00:00,12.0,ug/m3 (LC),2019-10-16,9,3781,139.862
2019-10-16 10:00:00,18.0,ug/m3 (LC),2019-10-16,10,3781,173.975
2019-10-16 11:00:00,11.0,ug/m3 (LC),2019-10-16,11,3781,133.204
2019-10-16 12:00:00,21.0,ug/m3 (LC),2019-10-16,12,3781,58.6402
2019-10-16 13:00:00,12.0,ug/m3 (LC),2019-10-16,13,3781,17.2921
2019-10-16 14:00:00,11.0,ug/m3 (LC),2019-10-16,14,3781,300.106
2019-10-16 15:00:00,15.0,ug/m3 (LC),2019-10-16,15,3781,302.767
2019-10-16 16:00:00,18.0,ug/m3 (LC),2019-10-16,16,3781,311.422
2019-10-16 17:00:00,16.0,ug/m3 (LC),2019-10-16,17,3781,296.523
2019-10-16 18:00:00,19.0,ug/m3 (LC),2019-10-16,18,3781,274.651
2019-10-16 19:00:00,18.0,ug/m3 (LC),2019-10-16,19,3781,304.591
2019-10-16 20:00:00,17.0,ug/m3 (LC),2019-10-16,20,3781,323.505
2019-10-16 21:00:00,23.0,ug/m3 (LC),2019-10-16,21,3781,294.98
2019-10-16 22:00:00,18.0,ug/m3 (LC),2019-10-16,22,3781,269.773
2019-10-16 23:00:00,11.0,ug/m3 (LC),2019-10-16,23,3781,317.828
2019-10-17 00:00:00,5.0,ug/m3 (LC),2019-10-17,0,3781,318.215
2019-10-17 01:00:00,5.0,ug/m3 (LC),2019-10-17,1,3781,321.76